Powrót do katalogu

ONEWEB-0500

AktywnyŁącznośćPO
NORAD 54118·PAYLOAD·🇬🇧 United Kingdom

Wystrzelony Oct 22, 2022 z Satish Dhawan Space Centre

Loading…

Następne Przeloty (najbliższe 24 godziny)

TLE

ŚwieżeSource: CelesTrak SupGP

Epoka: Sep 14, 2026, 14:57 UTC

1 54118C 22138F   26257.62341852 -.00000718  00000+0 -17956-2 0  2572
2 54118  87.9116 287.1524 0001859  91.3536  20.1679 13.19724937    14

Śledź ONEWEB-0500 w czasie rzeczywistym z AllMySat

Download on the App Store